Regional Weather Roundup
Issued by NWS

Home | Current Version | Previous Version | Text Only | Print | Product List | Glossary On
Versions: 1 2 3 4 5 6 7 8 9 10 11 12 13 14 15 16 17 18 19 20 21 22 23 24 25 26 27 28 29 30 31 32 33 34 35 36 37 38 39 40 41 42 43 44 45 46 47 48 49 50
000
ASUS43 KLSX 222107
RWRMO

WEATHER SUMMARY FOR MISSOURI
NATIONAL WEATHER SERVICE SPRINGFIELD MO
300 PM CST WED NOV 22 2017

NOTE: "FAIR" INDICATES FEW OR NO CLOUDS BELOW 12,000 FEET WITH NO
       SIGNIFICANT WEATHER AND/OR OBSTRUCTIONS TO VISIBILITY.
       CURRENT SKY AND/OR WEATHER CONDITIONS ARE NOT AVAILABLE FOR
       CHILLICOTHE AND FARMINGTON.

MOZ001>031-035>038-043-044-053-054-222200-
...NORTHERN AND WESTERN MISSOURI...

CITY           SKY/WX    TMP DP  RH WIND       PRES   REMARKS
KANSAS CTY INT PTSUNNY   40  15  36 SW8       30.26F
KANSAS C DTWN  CLOUDY    43  15  32 SW7       30.28F
LEE`S SUMMIT   SUNNY     41  16  36 SW7       30.28F
ST JOSEPH      CLOUDY    40  13  33 SW12      30.24F
CHILLICOTHE      N/A     41  13  31 VRB6      30.29F
KIRKSVILLE     SUNNY     40  14  34 S7        30.27F

$$
MOZ066>068-077>081-088>096-101>105-222200-
...SOUTHWEST MISSOURI...

CITY           SKY/WX    TMP DP  RH WIND       PRES   REMARKS
SPRINGFIELD    SUNNY     44  16  32 CALM      30.27F
JOPLIN         SUNNY     46  21  37 CALM      30.30F
BRANSON        SUNNY     45  16  31 CALM      30.28F

$$
MOZ032>034-039>042-045>050-055>058-069>072-222200-
...CENTRAL MISSOURI...

CITY           SKY/WX    TMP DP  RH WIND       PRES   REMARKS
COLUMBIA       SUNNY     42  16  34 SW5       30.28F
JEFFERSON CITY SUNNY     42  14  32 CALM      30.30F
ROLLA          SUNNY     41  15  35 CALM      30.28F
SEDALIA        SUNNY     43  16  33 VRB3      30.30F
WHITEMAN AFB   SUNNY     42  15  32 SW5       30.25F
WARRENSBURG    SUNNY     41  14  33 S5        30.30S
OSAGE BEACH    SUNNY     42  12  29 SW6       30.30F

$$
MOZ051-052-059>065-222200-
...EAST CENTRAL MISSOURI...

CITY           SKY/WX    TMP DP  RH WIND       PRES   REMARKS
ST LOUIS INTL  MOSUNNY   40  18  41 NW5       30.31F
SPIRIT OF STL  MOSUNNY   41  18  39 N5        30.31F
ST CHARLES     SUNNY     40  16  37 W3        30.31F

$$
MOZ072>076-082>087-097>100-106>115-222200-
...SOUTH CENTRAL AND SOUTHEAST MISSOURI...

CITY           SKY/WX    TMP DP  RH WIND       PRES   REMARKS
CAPE GIRARDEAU SUNNY     43  20  39 NE9       30.28F
FARMINGTON     SUNNY     41  16  36 N7        30.29S
POPLAR BLUFF   SUNNY     45  17  32 VRB3      30.28F
WEST PLAINS    SUNNY     49  13  23 VRB6      30.27S

$$



USA.gov is the U.S. government's official web portal to all federal, state and local government web resources and services.